Hourly Data Report for March 13, 2020

MAYO A
YUKON TERRITORY
Current Station Operator: NAVCAN

63°36'59.000" N
135°52'06.000" W
503.80 m
2100701
71965
YMA

Download Data

Hourly Data (March 2020)
Hourly Data Report for March 13, 2020
TIME
LST
Temp Definition
°C
Dew Point Definition
°C
Rel Hum Definition
%
Precip. Amount Definition
mm

Wind Dir Definition
10's deg

Wind Spd Definition
km/h
Visibility Definition
km
Stn Press Definition
kPa
Hmdx Definition


Wind Chill Definition


Weather Definition


00:00 -27.0 -29.9 77   36 3 32.2 98.53   -30 LegendNANA
01:00 -27.1 -29.9 78   1 5 32.2 98.56   -32 Mainly Clear
02:00 -29.2 -32.3 75   11 3 32.2 98.54   -33 LegendNANA
03:00 -28.2 -31.3 76   36 1 32.2 98.54   -29 LegendNANA
04:00 -27.6 -30.9 74   36 3 32.2 98.53   -31 Mainly Clear
05:00 -27.2 -30.4 75   8 3 32.2 98.49   -30 LegendNANA
06:00 -25.7 -28.8 76   36 2 32.2 98.49   -28 LegendNANA
07:00 -24.4 -27.7 75   0 1 32.2 98.45   -25 Cloudy
08:00 -24.1 -27.4 75   4 5 32.2 98.40   -29 LegendNANA
09:00 -23.3 -26.6 75   6 5 32.2 98.44   -28 LegendNANA
10:00 -22.4 -26.0 73   10 3 32.2 98.37   -25 Cloudy
11:00 -20.1 -24.6 68   9 3 32.2 98.36   -23 LegendNANA
12:00 -19.0 -23.6 67   10 7 32.2 98.39   -24 LegendNANA
13:00 -17.8 -22.9 65   6 7 32.2 98.35   -23 Cloudy
14:00 -16.7 -22.3 62   8 5 32.2 98.28   -21 LegendNANA
15:00 -15.8 -22.2 58   36 2 32.2 98.26   -17 LegendNANA
16:00 -14.0 -21.4 54   36 1 32.2 98.18   -15 Cloudy
17:00 -13.9 -20.8 57   8 8 32.2 98.12   -19 LegendNANA
18:00 -14.3 -20.9 58   2 4 32.2 98.05   -17 LegendNANA
19:00 -17.5 -20.6 77   36 2 32.2 97.97   -19 Cloudy
20:00 -18.0 -20.9 78   2 3 32.2 97.91   -20 LegendNANA
21:00 -17.2 -22.1 66   3 15 32.2 98.05   -26 LegendNANA
22:00 -16.6 -21.9 64   1 10 32.2 98.03   -23 Mainly Clear
23:00 -20.8 -24.0 76   1 5 32.2 98.07   -25 LegendNANA

Notes on Data Quality.

Legend

  • E = Estimated
  • M = Missing
  • NA = Not Available*
  • [empty] = Indicates an unobserved value
Date modified: